Location: Unspecified
(0.0000°N, 0.0000°E)
Time: 19:03:51
(UTC+00:00)

FENGYUN 1C DEB - Pass Details

Date: 18 February 2026
Orbit: 819 x 963 km, 99.2° (Epoch: 3 October)

Event Time Altitude Azimuth Distance (km) Brightness Sun altitude
Rises 05:17:36 0° 191° (S) 3,524 ? -13.8°
Reaches altitude 10° 05:20:30 10° 204° (SSW) 2,559 ? -13.1°
Maximum altitude 05:24:56 24° 256° (WSW) 1,739 ? -12.0°
Enters shadow 05:29:00 11° 306° (NW) 2,409 ? -11.0°
